[[[{"header":{"parameterUnit":"kt","parameterCategory":2,"dx":1,"dy":1,"la1":30.253999710083008,"la2":30.299108505249023,"lo1":-89.0895004272461,"lo2":-89.04439544677734,"nx":28,"ny":28,"refTime":"2022-10-16T21:00:00:Z","depth":0,"parameterNumber":1,"parameterNumberName":"U-component_of_WINDS"},"data":[-4.2107,-4.224,-4.2235,-4.2386,-4.2407,-4.2508,-4.2543,-4.2588,-4.2622,-4.2743,-4.2812,-4.2821,-4.2854,-4.2935,-4.301,-4.3012,-4.3043,-4.3095,-4.3088,-4.2864,-4.2832,-4.2802,-4.2769,-4.3102,-4.3103,-4.3321,-4.3323,-4.3325,-4.1945,-4.1967,-4.2045,-4.2117,-4.2184,-4.2132,-4.2185,-4.2244,-4.2337,-4.238,-4.2447,-4.2553,-4.2637,-4.2651,-4.2731,-4.2793,-4.2773,-4.2815,-4.2809,-4.2815,-4.2575,-4.2541,-4.283,-4.283,-4.283,-4.283,-4.283,-4.283,-4.1648,-4.1728,-4.1768,-4.1852,-4.1887,-4.1935,-4.2011,-4.2019,-4.2095,-4.2176,-4.2155,-4.226,-4.2301,-4.2394,-4.2423,-4.2505,-4.2457,-4.2501,-4.2512,-4.2523,-4.2536,-4.2221,-4.2518,-4.2517,-4.2516,-4.2516,-4.2515,0,-4.1429,-4.1419,-4.1492,-4.1565,-4.1626,-4.1681,-4.1731,-4.1778,-4.1754,-4.1818,-4.191,-4.1962,-4.2065,-4.215,-4.2223,-4.2244,-4.2195,-4.219,-4.222,-4.2231,-4.2232,-4.2233,-4.1841,-4.2181,-4.2178,-4.2176,-4.2174,-4.2173,-4.1128,-4.1222,-4.126,-4.1313,-4.1338,-4.1423,-4.1473,-4.1444,-4.1498,-4.1555,-4.1627,-4.1713,-4.1779,-4.1928,-4.1935,-4.2012,-4.1989,-4.2119,-4.2,-4.2008,-4.199,-4.1984,-4.1993,-4.2142,-4.2146,-4.215,-4.2152,0,-4.0959,-4.0948,-4.1091,-4.1119,-4.1129,-4.1229,-4.1253,-4.1332,-4.133,-4.1438,-4.1462,-4.1459,-4.155,-4.1536,-4.1636,-4.1626,-4.1792,-4.1768,-4.1778,-4.1772,-4.1887,-4.1876,-4.2262,-4.2311,-4.1967,-4.197,-4.1973,0,-4.0698,-4.0822,-4.0798,-4.0882,-4.1019,-4.0985,-4.1122,-4.1133,-4.1167,-4.1252,-4.1194,-4.1275,-4.1243,-4.1323,-4.1308,-4.1441,-4.146,-4.146,-4.1454,-4.1464,-4.1464,-4.1491,-4.1475,-4.1438,-4.1436,-4.1434,-4.1433,0,-4.0434,-4.0566,-4.0701,-4.0729,-4.077,-4.0835,-4.0856,-4.0892,-4.0941,-4.1002,-4.1033,-4.1107,-4.1147,-4.1205,-4.1185,-4.1105,-4.1347,-4.1232,-4.1347,-4.1348,-4.14,-4.1397,-4.1744,-4.143,-4.143,-4.1429,-4.1428,0,-4.022,-4.0281,-4.0479,-4.0511,-4.0547,-4.0637,-4.0705,-4.0778,-4.0822,-4.0817,-4.0865,-4.0823,-4.0937,-4.0825,-4.0982,-4.0883,-4.0927,-4.0937,-4.0945,-4.0953,-4.0826,-4.1024,-4.1356,-4.139,-4.0963,-4.0959,-4.0955,0,-3.9921,-4.0117,-4.0088,-4.0277,-4.0365,-4.0291,-4.0391,-4.043,-4.0432,-4.0507,-4.0509,-4.0596,-4.0508,-4.0533,-4.0613,-4.0619,-4.0748,-4.0601,-4.0711,-4.0715,-4.0701,-4.1007,-4.106,-4.1285,-4.0905,-4.0911,-4.0914,0,-3.9686,-3.9733,-3.9769,-3.9799,-3.9844,-3.9917,-4.0031,-4.0108,-4.0159,-4.021,-4.0304,-4.0425,-4.0364,-4.0405,-4.0378,-4.0463,-4.066,-4.0385,-4.0386,-4.0435,-4.0879,-4.0928,-4.0966,-4.0623,-4.0629,-4.0634,-4.0875,0,-3.9365,-3.9461,-3.9556,-3.9624,-3.9677,-3.9794,-3.9776,-3.9835,-3.9803,-3.9801,-3.994,-3.9967,-4.0046,-4.0085,-4.0054,-4.0252,-4.0216,-4.0149,-4.0037,-4.0239,-4.0317,-4.035,-3.9921,-3.9918,-3.9915,-3.9913,0,0,-3.9082,-3.9217,-3.918,-3.9288,-3.9331,-3.9251,-3.9378,-3.941,-3.9478,-3.951,-3.9447,-3.9621,-3.9646,-3.9816,-3.9878,-3.991,-3.9943,-3.9873,-4.0143,-4.0169,-4.0193,-4.0277,-4.0311,-3.9908,-3.9907,-3.9906,-3.9905,0,-3.8959,-3.8985,-3.911,-3.9141,-3.9187,-3.9178,-3.9208,-3.9239,-3.9243,-3.9378,-3.931,-3.9391,-3.9531,-3.9566,-3.9602,-3.9853,-3.9797,-3.9878,-4.0019,-4.0115,-4.0144,-4.017,-4.026,-4.0292,-3.9898,-3.9898,-3.9898,0,-3.8725,-3.8747,-3.8805,-3.8897,-3.8926,-3.9018,-3.8895,-3.8998,-3.9066,-3.8973,-3.9107,-3.912,-3.9165,-3.9328,-3.94,-3.9345,-3.9665,-3.956,-3.9578,-3.9585,-3.9677,-3.9712,-3.9744,-3.9327,-3.9325,-3.9323,0,0,-3.8622,-3.871,-3.8723,-3.8869,-3.8892,-3.888,-3.8927,-3.8899,-3.894,-3.8957,-3.8971,-3.9014,-3.9095,-3.9149,-3.9223,-3.9405,-3.9412,-3.949,-3.9517,-3.954,-3.9559,-3.9657,-3.9692,-3.9316,-3.9316,-3.9315,0,0,-3.8573,-3.8593,-3.8552,-3.872,-3.8761,-3.8783,-3.8874,-3.8825,-3.889,-3.8874,-3.8832,-3.8841,-3.8993,-3.9008,-3.8914,-3.9183,-3.9073,-3.9095,-3.9167,-3.9201,-3.9228,-3.9221,-3.8792,0,0,0,0,0,-3.8437,-3.859,-3.8553,-3.8578,-3.8694,-3.8804,-3.8819,-3.8787,-3.8709,-3.8782,-3.8786,-3.8722,-3.8948,-3.8864,-3.889,-3.8995,-3.9222,-3.9239,-3.9255,-3.9391,-3.9426,-3.9456,0,0,0,0,0,0,-3.8446,-3.8477,-3.8549,-3.8578,-3.8604,-3.8798,-3.866,-3.8655,-3.87,-3.8686,-3.8724,-3.8724,-3.8699,-3.8848,-3.8872,-3.8973,-3.8783,-3.9229,-3.9243,-3.9256,-3.9403,-3.9432,-3.9457,0,0,0,0,0,-3.8454,-3.8478,-3.8672,-3.8576,-3.8598,-3.8592,-3.8653,-3.8649,-3.8683,-3.8689,-3.8687,-3.8655,-3.8703,-3.872,-3.8862,-3.8963,-3.8767,-3.8776,-3.9238,-3.9249,-3.9259,-3.9417,0,0,0,0,0,0,-3.8459,-3.8475,-3.8675,-3.8681,-3.8515,-3.8581,-3.859,-3.8643,-3.8682,-3.8682,-3.8617,-3.8606,-3.8707,-3.872,-3.8734,-3.8961,-3.8753,-3.8762,-3.8768,-3.9246,-3.9255,-3.9263,0,0,0,0,0,0,-3.8461,-3.848,-3.8678,-3.8603,-3.86,-3.857,-3.8579,-3.8694,-3.8684,-3.8608,-3.86,-3.8612,-3.8686,-3.8721,-3.8731,-3.8913,-3.8743,-3.8751,-3.8757,-3.8761,-3.9254,-3.926,0,0,0,0,0,0,-3.8469,-3.8485,-3.8601,-3.8599,-3.8595,-3.8656,-3.8672,-3.8792,-3.8619,-3.8608,-3.8602,-3.8595,-3.8689,-3.8699,-3.873,-3.8908,-3.8912,-3.8743,-3.8749,-3.8753,-3.8756,0,0,0,0,0,0,0,-3.8475,-3.8374,-3.8642,-3.8595,-3.8592,-3.8733,-3.8735,-3.8736,-3.8617,-3.861,-3.8604,-3.8598,-3.8692,-3.8702,-3.8712,-3.8903,0,0,-3.8742,-3.8746,0,0,0,0,0,0,0,0,-3.8366,-3.8372,-3.8642,-3.8643,-3.8645,-3.8733,-3.8735,-3.8736,-3.8616,-3.8611,-3.8605,-3.86,-3.8695,-3.8703,-3.8711,0,0,0,0,0,0,0,0,0,0,0,0,0,0,0,-3.8642,-3.8643,0,-3.8734,-3.8735,-3.8736,-3.8615,-3.8611,-3.8606,-3.8602,-3.8697,-3.8704,-3.871,0,0,0,0,0,0,0,0,0,0,0,0,0,0,0,0,0,0,0,0,0,0,0,0,0,0,0,0,0,0,0,0,0,0,0,0,0,0,0,0,0,0,0,0,0,0,0,0,0,0,0,0,0,0,0,0,0,0,0,0,0,0,0,0,0,0,0,0,0]}],[{"header":{"parameterUnit":"kt","parameterCategory":2,"dx":1,"dy":1,"la1":30.253999710083008,"la2":30.299108505249023,"lo1":-89.0895004272461,"lo2":-89.04439544677734,"nx":28,"ny":28,"refTime":"2022-10-16T21:00:00:Z","depth":0,"parameterNumber":2,"parameterNumberName":"V-component_of_WINDS"},"data":[-3.4598,-3.4572,-3.4533,-3.4485,-3.4442,-3.4401,-3.4374,-3.4334,-3.4293,-3.4238,-3.4199,-3.4157,-3.4098,-3.4041,-3.3996,-3.3977,-3.396,-3.3978,-3.3952,-3.391,-3.3901,-3.3893,-3.3896,-3.3975,-3.3975,-3.4002,-3.4002,-3.4002,-3.4565,-3.4523,-3.4487,-3.4426,-3.4394,-3.4353,-3.43,-3.4275,-3.424,-3.4189,-3.4149,-3.4098,-3.4051,-3.3986,-3.3934,-3.3918,-3.3895,-3.3907,-3.3906,-3.3897,-3.385,-3.3855,-3.3926,-3.3926,-3.3926,-3.3926,-3.3926,-3.3926,-3.4495,-3.4481,-3.4422,-3.4383,-3.4342,-3.43,-3.428,-3.4229,-3.4192,-3.4136,-3.4097,-3.4055,-3.3996,-3.3915,-3.3878,-3.3843,-3.3822,-3.3823,-3.3822,-3.3823,-3.3828,-3.379,-3.3832,-3.3832,-3.3832,-3.3831,-3.3831,0,-3.4431,-3.44,-3.4364,-3.4316,-3.4284,-3.4243,-3.4199,-3.4185,-3.4105,-3.4078,-3.4035,-3.4004,-3.3941,-3.3895,-3.3838,-3.3799,-3.3752,-3.3745,-3.3744,-3.3761,-3.3783,-3.3768,-3.3691,-3.3744,-3.3743,-3.3742,-3.3741,-3.3741,-3.4355,-3.4346,-3.4266,-3.4245,-3.4212,-3.418,-3.4152,-3.4083,-3.4057,-3.3991,-3.3982,-3.3936,-3.3895,-3.3832,-3.3771,-3.3724,-3.37,-3.3724,-3.3693,-3.3709,-3.3697,-3.3698,-3.3695,-3.3731,-3.3733,-3.3734,-3.3734,0,-3.4316,-3.4254,-3.4226,-3.4148,-3.4128,-3.4121,-3.4053,-3.4036,-3.3989,-3.3959,-3.3947,-3.3873,-3.3831,-3.3766,-3.3707,-3.3674,-3.3655,-3.3635,-3.3674,-3.3665,-3.3678,-3.3677,-3.3736,-3.3739,-3.3659,-3.366,-3.366,0,-3.4226,-3.4216,-3.4123,-3.4111,-3.4096,-3.4027,-3.4014,-3.3972,-3.3921,-3.3897,-3.3835,-3.3814,-3.3735,-3.3703,-3.3654,-3.3628,-3.3618,-3.359,-3.3577,-3.3594,-3.3598,-3.3578,-3.3573,-3.3551,-3.3551,-3.3551,-3.3551,0,-3.4169,-3.4109,-3.4088,-3.4064,-3.3981,-3.3972,-3.3937,-3.388,-3.3854,-3.381,-3.3792,-3.3746,-3.372,-3.3685,-3.3623,-3.3604,-3.359,-3.3551,-3.3561,-3.3563,-3.3561,-3.3562,-3.3631,-3.355,-3.355,-3.355,-3.355,0,-3.4086,-3.4045,-3.4025,-3.3953,-3.394,-3.3927,-3.3877,-3.3851,-3.3796,-3.3765,-3.373,-3.3681,-3.3655,-3.362,-3.3582,-3.3574,-3.3552,-3.3523,-3.3523,-3.3515,-3.3478,-3.3523,-3.3598,-3.3602,-3.3509,-3.3509,-3.3508,0,-3.4036,-3.4,-3.3941,-3.3924,-3.3899,-3.383,-3.3814,-3.3768,-3.3725,-3.3696,-3.3648,-3.3616,-3.3577,-3.3558,-3.3548,-3.3497,-3.3507,-3.3494,-3.3449,-3.3448,-3.3463,-3.3531,-3.3558,-3.3589,-3.3503,-3.3504,-3.3504,0,-3.3989,-3.389,-3.3891,-3.386,-3.3791,-3.377,-3.3752,-3.3705,-3.3688,-3.3645,-3.3626,-3.3581,-3.3548,-3.3519,-3.3474,-3.3467,-3.3498,-3.3434,-3.3431,-3.3445,-3.3497,-3.3521,-3.3527,-3.3469,-3.347,-3.347,-3.35,0,-3.3873,-3.3849,-3.3851,-3.3789,-3.3763,-3.375,-3.3683,-3.3664,-3.3624,-3.3579,-3.3553,-3.35,-3.3452,-3.3443,-3.3405,-3.3411,-3.3399,-3.3366,-3.3327,-3.3373,-3.3381,-3.3385,-3.332,-3.3318,-3.3317,-3.3316,0,0,-3.3839,-3.3803,-3.3741,-3.3722,-3.3696,-3.3626,-3.3618,-3.3584,-3.3519,-3.3502,-3.348,-3.3409,-3.3368,-3.3342,-3.3351,-3.3334,-3.3327,-3.3315,-3.3352,-3.3357,-3.336,-3.337,-3.3375,-3.3314,-3.3313,-3.3313,-3.3312,0,-3.3783,-3.3744,-3.3738,-3.3701,-3.3644,-3.3598,-3.3597,-3.3528,-3.3499,-3.3474,-3.3416,-3.3392,-3.334,-3.3302,-3.3276,-3.3316,-3.3273,-3.3307,-3.335,-3.3342,-3.3348,-3.3353,-3.3364,-3.337,-3.3309,-3.3309,-3.331,0,-3.3723,-3.3673,-3.3664,-3.3604,-3.3566,-3.3543,-3.3485,-3.3465,-3.3446,-3.3371,-3.3348,-3.331,-3.3255,-3.3241,-3.3232,-3.3212,-3.3228,-3.3213,-3.3219,-3.3216,-3.3204,-3.3212,-3.3219,-3.3131,-3.3131,-3.313,0,0,-3.3684,-3.3662,-3.3587,-3.3587,-3.3567,-3.35,-3.3482,-3.344,-3.3393,-3.3374,-3.3325,-3.328,-3.3248,-3.3229,-3.3195,-3.3191,-3.3172,-3.3193,-3.3202,-3.3209,-3.321,-3.3201,-3.3208,-3.3129,-3.3129,-3.3129,0,0,-3.3665,-3.3578,-3.3546,-3.3539,-3.3496,-3.3422,-3.3424,-3.3383,-3.3347,-3.3341,-3.327,-3.3255,-3.3241,-3.3207,-3.3197,-3.318,-3.3143,-3.3144,-3.3203,-3.3213,-3.3221,-3.3229,-3.313,0,0,0,0,0,-3.3573,-3.3588,-3.3561,-3.355,-3.3475,-3.3438,-3.3428,-3.3369,-3.3343,-3.3346,-3.3297,-3.3254,-3.3186,-3.3175,-3.3165,-3.3177,-3.3112,-3.3115,-3.3118,-3.3193,-3.3203,-3.3213,0,0,0,0,0,0,-3.3568,-3.3555,-3.356,-3.3488,-3.347,-3.3437,-3.3379,-3.3364,-3.3341,-3.3333,-3.3265,-3.3252,-3.3201,-3.3176,-3.3168,-3.3181,-3.3133,-3.3113,-3.3116,-3.3118,-3.3196,-3.3205,-3.3213,0,0,0,0,0,-3.3564,-3.3554,-3.3449,-3.3487,-3.3472,-3.3398,-3.3378,-3.3365,-3.3346,-3.3273,-3.3258,-3.3304,-3.3203,-3.3192,-3.3171,-3.3186,-3.3138,-3.3135,-3.3115,-3.3117,-3.3119,-3.3201,0,0,0,0,0,0,-3.3561,-3.3541,-3.3445,-3.3438,-3.3478,-3.3398,-3.3384,-3.3366,-3.3286,-3.3272,-3.3309,-3.3304,-3.3205,-3.3196,-3.3188,-3.3191,-3.3143,-3.314,-3.3138,-3.3116,-3.3118,-3.3119,0,0,0,0,0,0,-3.3546,-3.3535,-3.3441,-3.3433,-3.3424,-3.3399,-3.3387,-3.3361,-3.3286,-3.3326,-3.3319,-3.3308,-3.3217,-3.3199,-3.3192,-3.3155,-3.3146,-3.3143,-3.3141,-3.314,-3.3118,-3.3119,0,0,0,0,0,0,-3.354,-3.3531,-3.3434,-3.3428,-3.342,-3.3338,-3.3376,-3.3302,-3.3279,-3.3331,-3.3275,-3.3274,-3.3221,-3.3213,-3.3195,-3.3161,-3.3156,-3.3146,-3.3144,-3.3143,-3.3142,0,0,0,0,0,0,0,-3.3536,-3.3611,-3.3486,-3.3423,-3.3417,-3.3375,-3.3373,-3.3371,-3.3279,-3.3277,-3.3276,-3.3274,-3.3162,-3.3159,-3.3156,-3.3167,0,0,-3.3146,-3.3145,0,0,0,0,0,0,0,0,-3.3613,-3.3612,-3.3486,-3.3484,-3.3483,-3.3374,-3.3373,-3.3371,-3.3278,-3.3277,-3.3276,-3.3275,-3.3161,-3.3159,-3.3156,0,0,0,0,0,0,0,0,0,0,0,0,0,0,0,-3.3485,-3.3484,0,-3.3374,-3.3373,-3.3372,-3.3278,-3.3277,-3.3276,-3.3275,-3.3161,-3.3159,-3.3156,0,0,0,0,0,0,0,0,0,0,0,0,0,0,0,0,0,0,0,0,0,0,0,0,0,0,0,0,0,0,0,0,0,0,0,0,0,0,0,0,0,0,0,0,0,0,0,0,0,0,0,0,0,0,0,0,0,0,0,0,0,0,0,0,0,0,0,0,0]}]]]